Location: Lafig�re
(44.4503°N, 4.0357°E)
Time: 17:10:48
(UTC+00:00)

deb Explorer IX - Pass Details

Date: 26 January 2021
Orbit: 537 x 1102 km, 38.8° (Epoch: 04 March)

Event Time Altitude Azimuth Distance (km) Brightness Sun altitude
Rises 20:51:51 0° 272° (W) 3,450 ? -43.7°
Reaches altitude 10° 20:54:55 10° 261° (W) 2,402 ? -44.2°
Enters shadow 20:55:04 11° 260° (W) 2,354 ? -44.2°
Maximum altitude 20:59:31 26° 206° (SSW) 1,403 - -45.0°
Drops below altitude 10° 21:03:35 10° 149° (SSE) 2,088 - -45.7°
Sets 21:06:04 0° 136° (SE) 2,914 - -46.1°
